This demonstration page uses our WeatherBlox Daily Observations layout. Learn more.

Left ArrowRight Arrow

Hourly Observations for April 5, 2019

Temp ( °F °C ) Dew Point ( °F °C ) Humidity (%) Winds ( mph kmh ) Pressure ( in mb ) Visibility ( mi km ) Precip ( " mm )
12:52 am 00:52 Mostly Cloudy with Fog 49 9.4 46 7.8 90 90 Calm 30.06 1018 0 0 0.00 0.00
1:52 am 01:52 Mostly Cloudy with Fog 48 8.9 46 7.8 93 93 Calm 30.06 1018 1 2 0.00 0.00
2:52 am 02:52 Mostly Cloudy with Fog 48 8.9 45 7.2 89 89 Calm 30.04 1017 1 2 0.00 0.00
4:27 am 04:27 Cloudy with Mist and Fog 47 8.3 45 7.2 93 93 SSE 5 7 30.03 1017 1 1 0.00 0.00
4:31 am 04:31 Cloudy with Mist and Fog 47 8.3 45 7.2 93 93 SSE 5 7 30.03 1017 1 2 0.00 0.00
4:52 am 04:52 Cloudy with Mist and Fog 47 8.3 44 6.7 90 90 S 3 6 30.02 1017 1 2 0.00 0.00
5:02 am 05:02 Cloudy with Mist and Fog 46 7.8 44 6.7 93 93 SSE 3 6 30.03 1017 1 2 0.00 0.00
5:18 am 05:18 Cloudy with Mist and Fog 46 7.8 44 6.7 93 93 S 5 7 30.04 1017 1 1 0.00 0.00
5:40 am 05:40 Cloudy with Mist and Fog 47 8.3 44 6.7 90 90 S 5 7 30.04 1017 1 2 0.00 0.00
5:52 am 05:52 Cloudy with Mist and Fog 47 8.3 45 7.2 93 93 SE 6 9 30.02 1017 1 1 0.00 0.00
6:20 am 06:20 Partly Cloudy with Mist and Fog 46 7.8 43 6.1 89 89 SSE 7 11 30.03 1017 1 2 0.00 0.00
6:26 am 06:26 Mostly Cloudy with Mist and Fog 46 7.8 43 6.1 89 89 SSE 6 9 30.03 1017 1 2 0.00 0.00
6:52 am 06:52 Cloudy with Mist and Fog 47 8.3 44 6.7 90 90 SSE 5 7 30.03 1017 2 3 0.00 0.00
7:19 am 07:19 Cloudy with Mist and Fog 48 8.9 45 7.2 89 89 SSE 9 15 30.04 1017 2 3 0.00 0.00
7:24 am 07:24 Cloudy with Mist and Fog 48 8.9 45 7.2 89 89 SSE 9 15 30.04 1017 2 2 0.00 0.00
7:30 am 07:30 Cloudy with Mist and Fog 48 8.9 45 7.2 89 89 SSE 10 17 30.04 1017 1 1 0.00 0.00
7:52 am 07:52 Cloudy with Fog 48 8.9 46 7.8 93 93 S 12 19 30.04 1017 1 1 0.00 0.00
8:15 am 08:15 Mostly Cloudy with Fog 49 9.4 46 7.8 90 90 SSE 13 20 30.03 1017 0 0 0.00 0.00
8:52 am 08:52 Mostly Cloudy with Fog 49 9.4 47 8.3 93 93 SSE 14 22 30.02 1017 0 0 0.00 0.00
9:22 am 09:22 Mostly Cloudy with Fog 49 9.4 47 8.3 93 93 S 10 17 30.05 1018 1 1 0.00 0.00
9:52 am 09:52 Mostly Cloudy with Fog 50 10 47 8.3 89 89 SSE 8 13 30.05 1018 1 1 0.00 0.00
10:52 am 10:52 Cloudy with Light Rain 50 10 48 8.9 93 93 S 12 19 30.05 1018 1 1 0.00 0.03
10:59 am 10:59 Cloudy with Light Rain 50 10 48 8.9 93 93 S 13 20 30.06 1018 1 2 0.00 0.03
11:52 am 11:52 Cloudy with Mist and Fog 51 10.6 48 8.9 89 89 SSE 13 20 30.06 1018 2 3 0.00 0.03
12:10 pm 12:10 Cloudy with Mist and Fog 52 11.1 48 8.9 86 86 SSE 13 20 30.06 1018 3 5 0.00 0.00
12:36 pm 12:36 Cloudy with Haze 53 11.7 47 8.3 80 80 SSE 14 22 30.04 1017 4 6 0.00 0.00
12:52 pm 12:52 Cloudy with Haze 54 12.2 48 8.9 80 80 SSE 13 20 30.04 1017 4 6 0.00 0.00
1:52 pm 13:52 Cloudy with Haze 57 13.9 49 9.4 74 74 SSE 15 24 30.01 1016 6 10 0.00 0.00
2:25 pm 14:25 Partly Cloudy 59 15 50 10 72 72 SSE 15 24 29.98 1015 10 16 0.00 0.00
2:52 pm 14:52 Partly Cloudy 61 16.1 50 10 67 67 SSE 16 26 29.98 1015 7 11 0.00 0.00
3:52 pm 15:52 Partly Cloudy 65 18.3 52 11.1 63 63 SSE 16 26 29.93 1014 10 16 0.00 0.00
4:52 pm 16:52 Mostly Cloudy 68 20 52 11.1 57 57 S 23 37 29.91 1013 10 16 0.00 0.00
5:52 pm 17:52 Mostly Cloudy 68 20 51 10.6 55 55 SSE 20 31 29.90 1013 10 16 0.00 0.00
6:52 pm 18:52 Mostly Cloudy 67 19.4 51 10.6 57 57 SSE 16 26 29.90 1013 10 16 0.00 0.00
7:52 pm 19:52 Mostly Cloudy 64 17.8 51 10.6 63 63 SSE 14 22 29.89 1012 10 16 0.00 0.00
8:52 pm 20:52 Mostly Cloudy 62 16.7 51 10.6 67 67 SSE 15 24 29.91 1013 10 16 0.00 0.00
9:52 pm 21:52 Mostly Cloudy 60 15.6 50 10 70 70 SSE 15 24 29.93 1014 10 16 0.00 0.00
10:52 pm 22:52 Mostly Cloudy 58 14.4 50 10 75 75 SSE 14 22 29.94 1014 8 13 0.00 0.00
11:52 pm 23:52 Mostly Cloudy 57 13.9 49 9.4 74 74 SSE 20 31 29.93 1014 8 13 0.00 0.00

Powered by AerisWeather